Regional Weather Roundup
Issued by NWS

Home | Current Version | Previous Version | Text Only | Print | Product List | Glossary Off
Versions: 1 2 3 4 5 6 7 8 9 10 11 12 13 14 15 16 17 18 19 20 21 22 23 24 25 26 27 28 29 30 31 32 33 34 35 36 37 38 39 40 41 42 43 44 45 46 47 48 49

000
ASUS45 KBOU 230807
RWRCO

WEATHER ROUNDUP FOR COLORADO
NATIONAL WEATHER SERVICE DENVER/BOULDER CO
100 AM MST SUN NOV 23 2014

NOTE: "FAIR" INDICATES FEW OR NO CLOUDS BELOW 12000 FEET WITH NO
SIGNIFICANT WEATHER AND/OR OBSTRUCTIONS TO VISIBILITY.

COZ001>005-013-030-031-230900-
...NORTHWEST COLORADO...

CITY           SKY/WX    TMP DP  RH WIND       PRES   REMARKS
CRAIG          CLOUDY    30  26  85 W5        29.79R WCI  25
HAYDEN         CLOUDY    28  27  93 W7        29.78R WCI  21
MEEKER         FLURRIES  31  29  92 N3        29.79R
MOUNT WERNER   NOT AVBL
STEAMBOAT SPGS CLOUDY    29  29  98 SW9       29.76R WCI  21
WALDEN         CLOUDY    28  23  80 CALM      29.70F
$$

COZ006>008-011-230900-
...WEST CENTRAL VALLEYS...

CITY           SKY/WX    TMP DP  RH WIND       PRES   REMARKS
GRAND JUNCTION CLOUDY    33  33 100 CALM      29.79F
MONTROSE       LGT SNOW  33  32  96 NW7       29.84R FOG     WCI  27
EAGLE          CLOUDY    34  34 100 SW6       29.76R WCI  29
RIFLE          LGT RAIN  35  33  92 W7        29.78F WCI  29
DELTA          CLOUDY    37  35  92 SW9       29.80S
NUCLA          LGT RAIN  39  32  75 NW6       29.86R
$$

COZ017>023-064>068-230900-
...SOUTHWEST COLORADO...

CITY           SKY/WX    TMP DP  RH WIND       PRES   REMARKS
DURANGO        CLOUDY    32  30  92 CALM      29.81F
CORTEZ         CLOUDY    35  33  92 NE5       29.83F WCI  31
PAGOSA SPRINGS CLOUDY    32  31  95 CALM      29.82F
TELLURIDE      FLURRIES  31  26  81 CALM      29.84F
WOLF CREEK PAS HVY SNOW  18  18 100 SW26G39   29.79F VSB 1/4 WCI  -1
$$

COZ009-010-012-014-032>034-037-058>063-230900-
...CENTRAL COLORADO...

CITY           SKY/WX    TMP DP  RH WIND       PRES   REMARKS
ASPEN          LGT SNOW  31  29  92 N3        29.73R FOG
BUENA VISTA    CLOUDY    34  26  72 W12G20    29.69S WCI  26
COPPER MTN     CLOUDY    25  19  80 W17       29.72F WCI  11
BERTHOUD PASS  HVY SNOW  12   9  85 NW26G37   29.70S VSB 1/4 WCI  -8
COTTONWOOD PAS LGT SNOW  32  27  80 W13       29.70F WCI  22
GUNNISON       CLOUDY    28  25  86 CALM      29.78S
KREMMLING      CLOUDY    30  25  80 CALM      29.74F
LEADVILLE      LGT SNOW  25  22  88 N8        29.69F FOG     WCI  16
SALIDA         CLOUDY    37  30  74 W9G16     29.77S
SUNLIGHT       HVY SNOW  23  21  93 W7        29.78S VSB 1/4 WCI  15
WILKERSON PASS PTCLDY    23  18  80 W17G25    29.69R WCI   9
$$

COZ069>075-230900-
...SAN LUIS VALLEY/SANGRE DE CRISTO MOUNTAINS...

CITY           SKY/WX    TMP DP  RH WIND       PRES   REMARKS
ALAMOSA        PTCLDY    20  15  81 NE5       29.73F WCI  13
LA VETA PASS   PTCLDY    27  18  69 S18G37    29.63R WCI  13
SAGUACHE       LGT SNOW  30  30 100 NW5       29.74F WCI  25
$$

COZ035-036-038>040-230900-
...NORTHERN COLORADO FRONT RANGE...

CITY           SKY/WX    TMP DP  RH WIND       PRES   REMARKS
DENVER INTL AP CLOUDY    42  27  55 N10       29.56F
DMNS CITY PARK   N/A     42  25  49 NE6       29.56S
AURORA         CLOUDY    39  25  56 E7        29.58R
FRONT RANGE AP CLOUDY    43  30  61 N5        29.57F
ERIE MUNI ARPT MOCLDY    44  26  50 CALM      29.57R
BOULDER MUN AP CLOUDY    46  28  49 E3        29.56R
CENTENNIAL     MOCLDY    42  25  50 CALM      29.56F
BROOMFIELD     MOCLDY    45  27  49 N6        29.57S
FORT COLLINS   PTCLDY    45  23  42 N20G25    29.59R
LONGMONT       MOCLDY    43  28  54 N3        29.58S
$$

COZ041-046-047-076>085-087-088-230900-
...PIKES PEAK/PALMER DIVIDE AND SOUTHERN FOOTHILLS...

CITY           SKY/WX    TMP DP  RH WIND       PRES   REMARKS
COLO. SPRINGS  MOCLDY    47  22  37 W14G26    29.55F
A. F. ACADEMY  PTCLDY    43  20  39 W16G24    29.55F
ELLICOTT       NOT AVBL
FALCON         NOT AVBL
FORT CARSON    PTCLDY    40  22  49 NW5       29.55F
LIMON          CLOUDY    41  23  48 NW6       29.56S
MONUMENT HILL  MOCLDY    34  21  60 W8        29.57F WCI  27
TRINIDAD       CLEAR     43  21  41 W10       29.57F
$$

COZ042>045-048>051-090-091-230900-
...NORTHEAST COLORADO...

CITY           SKY/WX    TMP DP  RH WIND       PRES   REMARKS
GREELEY ARPT   MOCLDY    45  25  45 N24       29.58S
AKRON          CLOUDY    42  21  43 NW12      29.58R
BURLINGTON     CLOUDY    45  16  31 NW13      29.48R
WRAY           CLOUDY    45  21  38 CALM      29.52S
STERLING       CLOUDY    52  32  46 NW28G36   29.58R
HOLYOKE        CLOUDY    46  27  46 NW12G17   29.57R
FORT MORGAN    CLOUDY    47  23  38 NW18G26   29.58F
$$

COZ086-089-092>099-230900-
...SOUTHEAST COLORADO...

CITY           SKY/WX    TMP DP  RH WIND       PRES   REMARKS
PUEBLO         PTCLDY    50  26  39 NW14      29.54F
LA JUNTA       CLEAR     39  28  64 W3        29.50F
LAMAR          PTCLDY    44  29  55 W15       29.45F
SPRINGFIELD      N/A     48  23  37 NW16      29.48F
$$


USA.gov is the U.S. government's official web portal to all federal, state and local government web resources and services.